PEGASUS DEB, 39919

Orbit data source: Space-Track

PEGASUS DEB, 39919 is space debris in LEO originally from a launch on Thu, 19 May 1994 UTC launched from the Air Force Western Test Range (AFWTR). Debris objects in space refer to the collection of defunct objects orbiting the Earth. Examples of debris include non-operational satellites, rocket bodies, and fragments generated from explosions, collisions, or faulty payload assembly.

Loading next visibility...
Identifier
39919, 1994-029AFS
Orbit
LEO
Country
Flag of USUS
Related business
Manufacturer
Unknown
Mission
Spacecraft
Bus & Motor
Unknown
Mass
Unknown
Launch date (UTC)
1994-05-19 (32 years ago)
Launch vehicle
Unknown
Launch site
Air Force Western Test Range (AFWTR)
Object type
Payload
Rocket body
Debris
Shape & HBR
Unknown shape, 0.1 m
Radar Cross Section
Small (<0.1 m²)

Expand to show TLE details & history
Last TLE update: 1 week ago

TLE from 1 week ago
0 PEGASUS DEB
1 39919U 94029AFS 26099.42900390  .00002025  00000-0  39188-3 0  9999
2 39919  81.8480 156.9371 0257545 121.8950 240.7580 14.43786228619881
Epoch: 2026-04-09T10:17Z
TLE epoch observation values (Epoch: 2026-04-09T10:17:45.936Z)
Latitude
-0.00004°
Longitude
164.81855°
Altitude
842.164 km
Speed
7.383 km/s
True Right ascension
10h 27m 44s
True Declination
0° 00' 00"
Sunlit
Object was in full shadow at epoch
Visualization orbit readout
Latitude
Unknown
Longitude
Unknown
Altitude
Unknown
Speed
Unknown
Apparent Right ascension
Unknown
Apparent Declination
Unknown
Sunlit
N/A
Visualization observer readout
Local Sidereal Time
01:20:18
Azimuth
Unknown
Elevation
Unknown
Doppler factor
Unknown
Orbital elements
Apogee altitude
926.518 km
Perigee altitude
559.71 km
Semi-major axis
7,121.251 km
Eccentricity
0.02575
Inclination
81.848°
RAAN
156.9371°
Arg. of periapsis
121.895°
True anomaly
238.22357°
Mean anomaly
240.758°
Eccentric anomaly
239.48673°
Mean motion
3.61168 °/min
Orbital period
99.68 mins
BSTAR
0.00039188
Loading maneuver chart data...
Computing Atmospheric mass density...

Documentation

Showing up to 5 results
|